Temp
45 47 47 45 44 44 43 41 34 38 40 43 44 45 47 49 48 47 47 48 48 48 46 47 48 49 48 47 47 47 47 45 44 45 44 43 43 43 41 41 42 42 42 41
37 44 43 40 44 44 44 45 45 43 39 47 47 47 46 47 46 47 48 47 46 47 48 49 48 46 46 46 46 46 45 44 45 43 43 41 41 40 39 40 40 39 39 38
30 36 36 30 40 45 45 45 45 38 42 45 43 45 42 43 45 45 44 44 47 47 48 47 45 46 45 45 46 44 43 43 42 41 41 40 40 39 40 35 35 36 36 35
25 27 21 42 49 50 46 46 45 44 44 45 44 43 43 45 43 43 45 46 47 46 45 45 45 45 45 45 44 42 41 41 41 40 39 38 36 37 36 34 34 35 32 31
23 26 34 42 47 45 43 41 46 44 44 44 44 43 40 46 45 43 44 46 45 45 45 44 44 45 44 42 41 41 40 40 40 39 38 37 37 36 33 32 32 32 32 30
28 20 19 37 48 52 49 32 47 45 42 42 42 30 36 44 45 46 46 47 45 45 44 43 44 44 41 39 39 39 39 39 39 39 37 36 35 34 33 32 32 31 31 29
17 17 29 42 50 51 32 35 45 45 42 41 38 38 42 44 45 46 46 47 45 43 42 42 42 41 39 38 38 40 40 39 38 37 36 36 35 35 33 29 29 26 25 26
24 18 24 47 48 39 42 44 45 43 43 41 42 43 44 47 46 46 44 44 44 42 41 41 41 40 37 36 39 39 38 36 35 35 36 36 32 30 29 27 27 23 13 18
35 34 45 48 47 48 47 44 43 43 45 46 45 45 46 44 44 43 42 41 43 39 40 41 40 39 37 38 39 37 34 32 32 33 33 32 29 28 27 26 21 21 23 16
38 45 46 48 46 47 46 44 46 48 48 48 46 45 42 42 41 40 39 39 40 39 39 38 39 40 38 38 37 35 32 32 31 30 31 30 30 29 27 20 19 23 20 19
37 44 44 46 45 45 45 46 48 51 50 48 43 41 42 40 39 39 38 39 39 38 37 37 37 37 37 37 36 33 32 32 29 28 28 29 29 27 27 25 23 20 19 18
34 46 45 43 45 46 44 47 50 48 44 43 43 41 41 38 38 38 37 38 37 37 36 36 36 35 35 35 35 33 31 29 27 25 24 27 27 27 32 31 33 33 32 18
45 48 47 45 46 48 48 48 48 44 43 41 41 40 39 37 37 37 37 37 36 36 35 34 33 33 35 35 34 32 30 31 26 26 25 24 25 28 23 26 31 31 32 32
48 47 42 43 43 49 50 48 46 44 42 41 40 39 37 36 36 35 34 35 35 35 34 33 33 32 35 36 34 31 30 27 25 25 23 23 25 26 26 19 15 17 26 30
46 46 45 46 49 48 47 45 41 39 38 38 38 36 35 34 33 33 34 34 33 32 32 33 32 32 36 35 33 32 31 24 20 27 26 27 26 25 23 21 20 22 16 20
45 46 47 48 47 45 43 41 39 38 37 36 35 34 34 33 32 32 32 32 28 29 32 31 26 31 35 34 33 32 32 24 20 25 27 25 26 24 25 21 24 23 16 13
43 42 42 41 41 41 40 41 39 38 36 35 34 32 32 29 28 30 30 29 30 30 32 32 29 35 34 34 32 31 29 25 26 28 27 26 25 25 24 23 23 16 22 18
48 45 45 43 40 38 37 36 35 34 34 33 27 20 19 20 25 26 28 31 31 33 33 30 32 33 33 33 32 30 24 24 21 21 21 16 20 22 26 22 19 16 16 15
45 43 43 42 41 38 36 35 34 33 27 24 21 22 20 24 27 28 28 24 30 31 32 28 31 32 32 32 29 23 18 16 18 21 21 22 13 18 23 23 19 24 22 15
42 42 40 39 38 35 33 34 28 32 32 26 18 22 28 26 25 24 24 25 29 31 30 30 32 32 31 31 29 24 19 16 18 20 22 21 14 16 23 22 25 18 13 12
36 38 36 33 32 29 26 26 23 28 31 23 26 29 25 26 24 21 21 26 30 28 29 28 32 31 32 31 30 27 25 23 22 21 24 23 16 16 19 24 23 24 15 8
35 34 28 27 28 31 31 30 31 27 26 29 29 26 21 25 23 22 23 27 32 25 30 31 32 33 33 32 31 30 30 27 26 25 24 25 25 18 18 22 21 24 20 13
35 35 33 27 25 32 32 29 27 25 27 27 26 26 30 27 24 22 27 30 30 32 33 32 33 33 33 32 32 30 29 28 26 25 25 25 27 24 25 25 25 24 22 23
34 34 34 33 28 27 28 34 32 32 28 29 28 28 27 23 22 26 28 27 31 27 32 33 33 32 33 32 31 31 29 28 27 26 26 25 26 26 27 25 22 21 24 24
31 33 33 27 30 31 33 33 31 30 30 30 30 29 26 30 28 30 24 25 24 26 32 34 33 33 33 32 31 29 29 29 29 29 27 26 27 26 27 25 23 22 22 24
34 31 31 33 31 31 31 29 28 27 24 24 23 23 30 31 29 26 24 21 24 29 32 32 32 33 33 32 32 32 32 31 30 29 29 29 28 27 26 25 23 23 22 23
31 27 30 30 31 31 29 27 27 31 25 27 29 30 27 27 24 20 19 26 20 29 27 27 28 30 32 32 32 32 32 32 31 30 30 29 29 28 26 23 23 22 22 23
MSLP
1019.96 1019.65 1019.10 1018.95 1019.13 1019.54 1020.30 1020.91 1021.74 1021.62 1021.80 1021.78 1022.06 1022.27 1022.42 1022.73 1023.21 1023.60 1023.86 1023.92 1023.88 1023.97 1023.92 1023.83 1023.66 1023.39 1023.70 1023.66 1023.50 1023.28 1023.22 1023.25 1023.23 1022.98 1022.63 1022.27 1022.14 1022.06 1021.93 1021.91 1022.11 1022.16 1021.68 1021.48
1021.54 1021.09 1020.67 1019.93 1019.44 1019.41 1019.68 1019.95 1020.60 1021.13 1021.72 1022.03 1022.42 1022.67 1023.01 1023.20 1023.49 1023.77 1023.92 1023.93 1024.09 1024.00 1023.84 1023.71 1023.81 1023.87 1023.85 1023.70 1023.54 1023.32 1023.36 1023.44 1023.31 1023.11 1022.72 1022.51 1022.28 1021.96 1021.76 1021.68 1021.77 1022.17 1021.78 1021.69
1023.58 1022.91 1021.94 1020.98 1019.35 1019.06 1019.18 1019.56 1020.02 1020.93 1021.27 1022.20 1022.91 1023.20 1023.55 1023.72 1023.73 1023.77 1023.81 1023.91 1023.91 1023.72 1023.63 1023.84 1023.82 1023.86 1023.81 1023.67 1023.44 1023.47 1023.50 1023.51 1023.34 1022.88 1022.67 1022.49 1022.16 1021.94 1021.97 1022.23 1022.33 1022.51 1022.04 1022.05
1025.35 1024.55 1023.35 1020.20 1019.07 1018.55 1019.06 1019.73 1020.15 1020.96 1021.86 1022.50 1022.93 1023.37 1023.71 1023.67 1023.59 1023.64 1023.65 1023.65 1023.63 1023.70 1023.76 1023.85 1023.91 1023.84 1023.74 1023.48 1023.48 1023.57 1023.61 1023.47 1023.06 1022.90 1022.68 1022.45 1022.36 1022.27 1022.40 1022.40 1022.20 1022.11 1022.29 1022.34
1026.55 1025.66 1023.41 1020.71 1019.38 1018.86 1019.12 1020.19 1020.63 1021.30 1022.20 1022.72 1023.15 1023.61 1023.80 1023.48 1023.32 1023.36 1023.46 1023.45 1023.66 1023.80 1023.92 1024.01 1023.97 1023.81 1023.55 1023.60 1023.59 1023.50 1023.37 1023.25 1023.07 1022.87 1022.66 1022.40 1022.38 1022.30 1022.37 1022.33 1022.20 1022.31 1022.45 1022.50
1026.83 1026.36 1023.99 1020.65 1019.13 1018.69 1019.11 1020.34 1020.50 1021.22 1022.13 1022.70 1023.22 1023.63 1023.56 1023.20 1023.17 1023.19 1023.22 1023.54 1023.73 1023.82 1023.99 1023.95 1023.67 1023.38 1023.48 1023.63 1023.72 1023.60 1023.42 1023.28 1023.02 1022.79 1022.60 1022.42 1022.24 1022.22 1022.16 1022.04 1022.40 1022.60 1022.62 1022.58
1026.43 1025.57 1022.80 1020.19 1019.07 1018.94 1020.21 1020.20 1020.30 1021.08 1021.84 1022.49 1022.90 1022.74 1022.79 1022.85 1022.84 1023.08 1023.36 1023.52 1023.64 1023.78 1023.90 1023.73 1023.67 1023.43 1023.56 1023.70 1023.71 1023.59 1023.37 1023.23 1023.07 1022.82 1022.56 1022.12 1021.93 1021.89 1021.91 1022.30 1022.69 1022.88 1022.84 1022.78
1025.65 1024.81 1021.59 1019.20 1019.26 1019.42 1019.25 1019.58 1020.16 1020.97 1021.53 1021.95 1022.24 1022.49 1022.76 1022.86 1022.98 1023.21 1023.44 1023.59 1023.78 1023.96 1023.88 1023.77 1023.64 1023.54 1023.71 1023.66 1023.46 1023.40 1023.34 1023.26 1023.16 1022.88 1022.54 1022.20 1022.01 1022.26 1022.43 1022.69 1022.95 1023.14 1023.26 1023.24
1022.16 1020.69 1019.08 1018.36 1017.94 1017.99 1018.49 1019.29 1020.04 1020.57 1021.13 1021.51 1022.02 1022.42 1022.71 1023.11 1023.33 1023.55 1023.77 1023.97 1023.93 1024.06 1024.01 1023.85 1023.75 1023.70 1023.65 1023.36 1023.18 1023.21 1023.31 1023.32 1023.18 1023.04 1022.82 1022.69 1022.66 1022.79 1022.85 1022.92 1023.04 1023.18 1023.24 1023.22
1020.40 1018.76 1018.51 1018.12 1018.15 1018.25 1018.63 1019.12 1019.80 1020.18 1020.78 1021.49 1022.37 1022.69 1023.13 1023.44 1023.62 1023.86 1024.08 1024.15 1024.10 1024.13 1024.20 1024.12 1023.98 1023.77 1023.60 1023.27 1023.01 1023.16 1023.31 1023.26 1023.17 1023.16 1022.96 1022.79 1022.82 1022.90 1022.97 1022.97 1023.00 1023.02 1023.06 1023.13
1019.01 1018.46 1018.38 1018.41 1018.46 1018.66 1019.11 1019.51 1019.99 1020.43 1020.79 1021.34 1022.21 1022.89 1023.18 1023.64 1023.96 1024.15 1024.27 1024.30 1024.22 1024.28 1024.24 1024.09 1023.94 1023.68 1023.28 1022.96 1022.87 1023.18 1023.13 1023.13 1023.18 1023.20 1023.11 1022.93 1022.87 1022.94 1022.86 1022.67 1022.72 1022.77 1022.74 1022.88
1017.76 1017.53 1017.73 1018.13 1018.47 1018.85 1019.32 1019.74 1020.06 1020.50 1021.40 1022.02 1022.36 1023.04 1023.43 1023.88 1024.12 1024.32 1024.35 1024.29 1024.25 1024.21 1024.09 1023.91 1023.78 1023.48 1023.10 1022.89 1023.08 1023.22 1023.05 1023.03 1023.10 1023.17 1023.10 1022.96 1022.90 1022.78 1022.52 1022.42 1022.29 1022.14 1022.02 1022.24
1016.66 1016.80 1017.29 1017.75 1018.48 1018.92 1019.37 1019.76 1020.32 1020.93 1021.64 1022.36 1022.94 1023.30 1023.68 1024.05 1024.22 1024.27 1024.36 1024.37 1024.39 1024.24 1024.09 1023.83 1023.57 1023.29 1022.83 1022.68 1022.70 1022.80 1022.84 1022.87 1022.90 1022.96 1022.94 1022.91 1022.72 1022.57 1022.61 1022.30 1021.99 1021.80 1021.63 1021.74
1016.43 1017.00 1018.18 1018.33 1018.64 1018.94 1019.31 1020.03 1020.79 1021.44 1022.14 1022.72 1023.22 1023.64 1023.91 1024.17 1024.38 1024.58 1024.60 1024.53 1024.40 1024.22 1024.02 1023.70 1023.49 1023.17 1022.61 1022.38 1022.25 1022.33 1022.44 1022.50 1022.73 1022.62 1022.61 1022.67 1022.57 1022.42 1022.31 1022.26 1022.41 1021.89 1021.51 1021.52
1016.68 1016.89 1017.23 1017.92 1018.47 1019.11 1019.81 1020.68 1021.39 1022.15 1022.76 1023.23 1023.55 1023.84 1024.18 1024.46 1024.60 1024.67 1024.58 1024.49 1024.32 1024.14 1023.89 1023.64 1023.37 1022.93 1022.34 1022.05 1021.90 1021.88 1021.93 1022.25 1022.15 1022.06 1022.03 1022.06 1022.12 1022.18 1022.11 1021.99 1021.93 1021.86 1021.70 1021.59
1017.00 1017.28 1017.84 1018.34 1019.06 1019.69 1020.31 1021.20 1021.72 1022.52 1022.96 1023.30 1023.75 1024.12 1024.39 1024.57 1024.63 1024.67 1024.65 1024.58 1024.49 1024.08 1023.71 1023.41 1023.14 1022.51 1021.98 1021.70 1021.45 1021.42 1021.39 1021.68 1021.71 1021.80 1021.83 1021.79 1021.89 1021.84 1021.75 1021.73 1021.69 1021.60 1021.65 1021.83
1016.99 1017.83 1018.32 1019.24 1019.84 1020.44 1021.06 1021.60 1022.08 1022.74 1023.23 1023.68 1024.09 1024.42 1024.62 1024.84 1024.91 1024.68 1024.56 1024.32 1024.02 1023.67 1023.23 1022.91 1022.53 1021.96 1021.53 1021.22 1021.11 1021.00 1021.22 1021.50 1021.49 1021.55 1021.58 1021.52 1021.42 1021.40 1021.30 1021.30 1021.25 1021.26 1021.30 1021.06
1017.28 1018.04 1019.24 1019.90 1020.60 1021.13 1021.68 1022.18 1022.65 1023.11 1023.53 1023.90 1024.37 1024.90 1025.28 1025.14 1025.01 1024.64 1024.15 1023.69 1023.38 1023.02 1022.61 1022.14 1021.77 1021.47 1021.03 1020.71 1020.56 1020.57 1020.93 1021.19 1021.33 1021.33 1021.22 1021.15 1021.05 1020.99 1020.88 1020.78 1020.82 1020.92 1020.93 1020.65
1018.97 1019.78 1020.36 1020.64 1021.06 1021.67 1022.22 1022.71 1023.12 1023.32 1023.72 1024.07 1024.69 1025.02 1025.06 1024.93 1024.53 1024.07 1023.58 1023.29 1022.80 1022.16 1021.66 1021.30 1021.13 1020.82 1020.42 1020.07 1020.04 1020.28 1020.52 1021.06 1021.05 1020.95 1020.90 1020.72 1020.63 1020.54 1020.42 1020.30 1020.28 1020.34 1020.40 1020.60
1020.27 1020.64 1021.05 1021.63 1022.02 1022.35 1022.70 1022.92 1023.22 1023.52 1023.62 1023.93 1024.33 1024.78 1024.61 1024.22 1023.88 1023.60 1023.22 1023.12 1022.44 1021.64 1021.00 1020.86 1020.61 1020.15 1019.85 1019.55 1019.53 1019.78 1020.08 1020.48 1020.50 1020.38 1020.33 1020.22 1020.06 1019.94 1019.77 1019.66 1019.58 1019.66 1019.94 1020.15
1021.27 1021.46 1021.84 1022.23 1022.57 1022.96 1023.02 1022.95 1023.45 1023.52 1023.37 1023.61 1024.07 1023.95 1023.77 1023.32 1023.20 1023.09 1023.09 1022.38 1021.34 1020.91 1020.62 1020.32 1020.08 1019.67 1019.26 1019.05 1018.97 1019.16 1019.35 1019.56 1019.62 1019.58 1019.56 1019.47 1019.28 1019.13 1019.02 1018.89 1018.82 1018.94 1019.30 1019.48
1021.82 1022.06 1022.29 1022.56 1022.83 1022.99 1022.83 1022.87 1023.01 1023.11 1023.27 1023.32 1023.22 1023.16 1023.19 1022.91 1022.57 1022.32 1022.22 1021.88 1020.59 1020.25 1019.99 1019.62 1019.24 1018.94 1018.65 1018.39 1018.24 1018.18 1018.24 1018.38 1018.40 1018.43 1018.50 1018.48 1018.41 1018.23 1018.11 1018.01 1017.96 1017.96 1018.02 1018.20
1022.17 1022.32 1022.50 1022.64 1022.86 1022.95 1022.76 1022.69 1022.64 1022.77 1022.87 1022.64 1022.51 1022.29 1022.18 1021.90 1021.82 1021.95 1021.24 1020.47 1020.15 1019.82 1019.44 1019.01 1018.53 1018.20 1017.96 1017.68 1017.43 1017.32 1017.22 1017.24 1017.30 1017.40 1017.46 1017.38 1017.27 1017.20 1017.05 1016.98 1016.95 1016.97 1017.07 1017.11
1022.41 1022.45 1022.55 1022.52 1022.60 1022.90 1022.79 1022.22 1022.06 1021.93 1021.80 1021.58 1021.42 1021.17 1021.22 1021.25 1021.01 1020.84 1020.56 1020.08 1019.69 1019.35 1018.92 1018.40 1017.97 1017.62 1017.33 1017.00 1016.74 1016.51 1016.37 1016.37 1016.25 1016.20 1016.19 1016.15 1016.13 1016.11 1016.05 1016.05 1016.22 1016.18 1016.16 1016.26
1022.43 1022.47 1022.41 1022.56 1022.57 1022.38 1022.11 1021.62 1021.54 1021.37 1021.14 1020.96 1020.72 1020.35 1020.26 1020.24 1020.49 1020.07 1019.90 1019.59 1019.25 1018.99 1018.42 1017.87 1017.48 1017.13 1016.73 1016.34 1016.00 1015.75 1015.46 1015.24 1015.04 1014.91 1014.90 1014.92 1014.92 1015.00 1015.00 1015.09 1015.24 1015.37 1015.40 1015.38
1022.53 1022.44 1022.32 1022.09 1021.99 1021.74 1021.41 1021.22 1021.33 1020.98 1020.87 1020.81 1020.21 1019.88 1019.60 1019.66 1019.66 1019.53 1019.36 1019.21 1018.95 1018.54 1018.01 1017.54 1017.12 1016.62 1016.17 1015.78 1015.28 1014.85 1014.50 1014.17 1013.99 1013.83 1013.74 1013.67 1013.70 1013.92 1014.08 1014.28 1014.40 1014.53 1014.62 1014.63
1022.42 1022.30 1022.13 1021.85 1021.52 1021.24 1020.96 1020.82 1020.90 1020.49 1020.06 1019.84 1019.52 1019.30 1019.25 1019.12 1019.07 1019.13 1019.06 1018.78 1018.60 1018.39 1018.11 1017.71 1017.23 1016.66 1016.04 1015.38 1014.76 1014.20 1013.71 1013.27 1012.97 1012.76 1012.65 1012.59 1012.69 1012.98 1013.27 1013.54 1013.77 1013.96 1014.08 1014.15
Wind_Speed
2 5 2 1 2 1 5 5 6 6 7 4 5 7 5 7 7 6 5 5 5 5 5 4 5 5 6 4 5 4 6 6 5 5 4 3 5 6 3 3 4 7 6 5
1 5 6 3 5 5 4 3 4 6 3 4 5 4 4 6 6 5 4 4 4 4 5 6 5 3 3 4 5 4 4 3 4 5 6 6 6 6 4 1 5 5 6 3
4 4 5 6 6 3 1 3 4 6 6 5 3 5 5 5 5 4 1 4 6 6 6 4 4 3 3 3 3 4 3 3 3 4 5 6 6 6 4 6 6 9 3 4
3 4 1 6 5 5 7 3 8 9 7 6 5 4 5 4 4 4 4 4 5 4 5 4 1 3 3 4 3 3 2 2 4 5 5 5 5 5 2 1 5 2 4 4
4 3 5 2 5 6 6 5 6 10 8 5 7 5 2 3 2 2 3 4 3 2 2 1 3 5 5 4 4 2 3 5 5 5 6 5 5 5 4 3 1 3 3 3
3 5 7 6 3 6 5 5 7 8 8 7 6 2 4 5 2 3 3 2 3 2 1 2 5 6 5 3 3 4 3 4 5 5 5 5 5 5 3 1 4 3 3 5
2 2 9 7 4 4 6 10 7 8 7 7 5 6 4 1 1 1 3 4 3 4 3 6 6 2 6 3 3 3 3 4 5 6 6 6 5 2 1 5 4 2 3 3
3 2 10 8 4 8 7 4 7 6 7 6 5 4 3 5 3 5 5 5 5 4 6 5 2 4 2 1 3 2 2 4 5 6 5 5 4 4 5 4 3 2 2 2
11 9 6 6 5 4 7 7 7 8 5 6 6 4 5 4 6 6 6 4 3 4 5 5 1 1 2 5 4 2 1 3 4 5 5 5 4 3 3 2 2 1 0 1
4 6 9 6 2 3 3 5 6 5 7 6 3 4 6 5 5 5 3 4 3 5 5 5 3 4 5 6 5 3 1 2 3 4 5 4 2 2 2 1 1 1 1 1
4 3 3 3 2 6 7 7 7 6 5 5 9 6 6 4 5 3 2 3 3 4 5 5 4 5 6 6 2 2 1 0 2 2 3 3 1 0 1 3 3 2 3 2
7 7 5 5 7 7 7 6 6 6 8 6 7 7 5 5 2 2 3 4 4 5 6 6 5 6 3 3 3 5 4 3 2 1 2 1 1 2 4 3 7 5 6 5
5 3 2 7 8 6 6 6 6 9 9 9 5 6 4 2 2 4 5 5 5 6 5 6 6 8 5 0 2 4 5 4 2 1 1 2 1 0 2 6 9 7 6 7
8 11 5 4 6 7 7 8 11 9 8 6 6 4 3 3 4 5 5 5 6 5 6 6 7 9 7 4 2 4 5 5 3 3 3 2 2 2 2 1 3 4 5 2
8 2 6 7 8 7 11 10 10 7 6 5 4 4 4 4 5 6 5 5 5 6 6 8 9 12 10 5 4 5 3 2 3 4 2 2 3 2 3 2 2 3 2 3
7 7 9 10 11 10 10 7 8 5 3 3 3 2 2 4 5 5 5 5 6 8 10 10 8 12 9 6 5 4 3 4 3 2 3 2 3 3 3 2 3 3 2 3
12 8 9 10 10 7 7 5 6 4 3 1 3 3 4 4 5 5 5 5 5 7 8 10 10 11 8 7 5 3 1 2 3 2 3 3 3 4 4 4 4 3 4 3
11 13 10 10 8 7 6 5 4 3 2 2 2 1 3 3 5 6 6 5 6 8 8 7 7 9 7 7 5 3 3 3 3 3 3 3 4 3 4 3 4 3 4 3
15 13 9 8 7 6 4 2 2 2 1 2 1 4 4 5 6 6 6 4 7 9 8 5 7 9 9 7 4 2 3 3 3 3 3 4 3 4 4 4 4 5 4 3
10 8 7 5 4 2 1 2 3 3 5 3 3 3 6 7 6 7 5 7 9 8 7 6 9 7 9 6 5 3 4 4 4 4 4 4 4 4 5 5 6 4 3 4
7 6 4 2 2 2 3 3 2 5 6 4 5 8 7 7 5 5 5 7 8 7 7 6 6 7 6 6 5 5 5 5 6 6 6 6 5 5 5 5 4 5 4 3
3 2 2 2 2 5 5 5 5 5 5 7 8 8 5 8 7 5 7 10 8 7 5 5 5 8 8 9 6 6 6 6 7 6 6 7 6 5 5 5 5 5 5 4
2 2 2 3 4 5 5 4 5 5 7 7 8 7 8 7 3 2 9 4 5 7 8 7 8 9 11 7 6 7 8 8 7 7 7 7 7 6 6 5 5 4 5 5
3 3 4 5 3 2 5 6 6 7 7 7 8 9 7 4 4 4 6 8 10 8 8 10 10 11 11 7 8 7 7 8 8 7 7 9 7 6 6 5 4 4 4 6
3 4 3 3 5 5 6 7 5 6 6 6 7 6 6 4 4 5 4 5 7 7 10 12 11 12 8 8 8 8 8 8 9 9 8 8 7 7 7 5 5 4 4 4
4 3 4 6 5 5 5 3 4 4 3 4 4 4 3 4 5 5 4 5 5 7 6 6 7 8 8 9 9 9 9 9 9 9 10 9 8 7 6 5 5 4 4 4
5 4 4 4 4 5 4 4 3 7 5 5 6 5 4 4 4 4 5 4 3 4 5 6 7 9 10 9 10 10 9 9 10 9 9 8 7 6 5 5 4 4 3 3
Wind_Direction
49 23 35 169 146 278 196 188 157 250 212 150 134 128 136 120 130 105 74 44 26 2 329 314 315 303 15 26 13 16 17 30 14 360 352 286 272 293 300 222 286 284 273 277
49 15 19 307 297 257 225 217 175 136 102 144 128 103 100 124 118 101 71 32 318 291 312 303 337 45 44 6 2 18 31 27 332 338 340 341 316 277 229 305 296 325 306 331
257 8 359 339 214 205 165 74 211 218 182 140 149 135 158 136 123 130 171 265 279 297 289 354 87 67 17 324 314 4 72 20 336 357 358 328 311 317 25 39 20 291 27 79
203 30 13 250 307 195 143 69 114 106 137 155 168 151 141 162 156 192 234 284 316 347 18 64 37 357 309 296 348 75 46 314 359 348 328 335 358 4 41 201 237 163 91 60
136 192 297 294 196 156 163 225 180 150 157 156 143 134 211 189 187 219 271 303 24 23 78 60 330 289 271 5 93 69 14 1 348 335 320 304 312 308 274 282 110 87 87 44
153 138 213 240 212 125 85 281 185 158 171 167 145 126 242 215 213 324 344 74 92 68 89 338 301 317 2 73 33 21 6 333 320 306 312 305 290 279 260 271 109 96 76 47
147 217 286 238 208 102 99 238 170 164 170 170 185 193 201 309 235 153 105 88 82 60 354 302 322 54 85 61 16 307 325 332 334 329 308 292 290 279 324 101 106 78 74 40
104 83 280 184 109 169 204 152 156 151 169 173 185 184 198 165 109 82 63 29 55 4 331 337 42 81 117 306 273 291 12 9 347 335 342 3 36 73 94 117 117 76 64 340
182 212 239 215 194 186 156 149 174 156 163 167 172 166 157 88 76 67 59 42 346 3 354 345 14 67 312 272 267 218 76 21 13 357 3 13 53 74 75 75 102 236 357 335
102 243 224 227 70 103 124 133 133 140 153 147 152 156 105 100 75 70 29 17 356 4 345 323 349 330 296 297 264 189 127 32 22 359 339 356 71 96 111 159 231 258 302 314
256 288 59 14 156 142 116 125 135 137 136 151 123 117 115 98 89 64 34 351 342 335 323 297 303 308 308 310 252 235 179 113 356 318 342 346 116 110 243 241 194 222 235 203
222 222 191 201 168 152 140 166 160 137 94 96 117 120 117 102 96 71 11 344 341 328 312 303 306 300 301 57 359 294 265 256 251 257 291 276 206 328 320 288 314 315 234 165
228 170 173 141 152 156 154 149 133 112 127 116 95 106 106 128 67 10 355 342 328 308 321 318 320 313 257 33 329 286 257 263 233 194 220 270 248 329 308 320 332 342 344 221
126 108 69 167 179 168 145 114 112 98 97 104 116 99 98 56 6 347 326 312 308 311 313 313 313 306 289 253 311 259 253 254 230 204 198 245 247 260 263 253 280 301 334 296
167 84 153 146 129 107 109 120 105 110 118 105 99 81 60 4 324 307 308 313 319 309 312 313 309 296 296 287 277 267 250 260 236 225 226 206 245 251 241 269 272 266 325 336
148 120 129 129 119 114 113 105 107 119 97 83 55 352 293 296 296 301 308 325 333 320 313 311 291 288 288 267 263 270 256 286 246 216 243 219 233 228 245 254 261 261 258 251
134 140 109 115 121 112 113 115 109 106 86 75 271 266 306 315 309 295 295 269 268 281 295 307 282 296 291 266 255 222 214 223 230 253 259 254 231 238 234 228 244 248 259 230
96 93 91 104 118 128 106 104 116 144 194 234 277 332 299 309 280 283 273 283 291 304 305 275 275 299 288 269 241 226 187 214 226 228 242 259 257 248 252 233 247 242 264 262
80 93 101 85 75 102 119 147 188 220 282 253 256 259 243 255 259 263 266 271 287 303 296 260 269 282 276 266 227 203 194 220 254 257 245 252 266 259 251 242 243 245 240 251
76 78 95 108 86 94 223 231 219 263 268 226 213 244 253 254 254 267 269 267 268 267 285 286 293 279 281 254 227 207 218 227 238 248 256 251 248 255 261 245 245 232 239 250
89 87 87 135 243 267 239 246 216 264 269 211 222 255 247 260 253 260 286 283 271 256 269 283 305 288 282 254 229 223 225 235 237 242 252 256 252 248 247 248 240 235 228 229
76 54 346 319 280 289 282 266 247 251 260 263 253 258 258 272 267 252 229 254 283 265 266 259 268 274 277 271 248 230 232 232 234 233 239 247 245 234 245 240 230 228 219 217
357 335 303 294 269 271 290 286 271 246 256 253 253 251 243 242 228 279 300 248 257 274 282 279 272 274 279 273 266 248 235 231 227 231 238 243 244 240 235 232 232 225 226 220
333 311 283 280 296 297 287 285 273 265 244 257 247 244 234 258 273 235 251 275 288 280 291 296 286 284 285 276 268 258 250 241 237 233 234 233 237 238 240 225 226 232 229 234
272 278 269 297 295 275 274 274 280 277 288 291 285 270 231 214 215 275 251 264 278 295 312 311 294 288 288 285 270 257 251 245 241 239 231 229 232 230 230 217 211 220 223 227
305 283 268 266 244 256 261 273 269 272 278 284 275 254 234 233 247 256 272 283 279 282 302 304 304 300 291 286 281 275 267 257 250 245 239 233 224 227 218 217 211 214 220 225
291 274 293 300 290 279 270 265 270 281 240 243 261 269 243 262 260 266 268 263 288 312 324 314 309 312 308 298 287 280 277 274 255 251 242 229 214 216 211 205 205 210 217 221